Location: Lane
(33.5226°N, 79.8788°W)
Time: 10:49:59
(UTC+00:00)

Altair - Pass Details

Date: 11 October 2022
Orbit: 1501 x 1682 km, 47.2° (Epoch: 30 November)

Event Time Altitude Azimuth Distance (km) Brightness Sun altitude
Rises 07:01:06 0° 224° (SW) 4,658 - -52.5°
Reaches altitude 10° 07:04:05 10° 223° (SW) 3,695 - -52.0°
Maximum altitude 07:13:25 77° 139° (SE) 1,609 - -50.5°
Exits shadow 07:17:49 38° 61° (ENE) 2,270 8.5 -49.7°
Drops below altitude 10° 07:23:10 10° 55° (NE) 3,847 10.1 -48.8°
Sets 07:26:21 0° 55° (NE) 4,858 10.8 -48.2°
